sat.trackr.live / text

‹ back to catalog

ICEYE-X75

NORAD 68497 · 2026-067CK

PAYLOAD ACTIVE UNKNOWN

§ Identity

Operator
Country
POL
Launch date
2026-03-30
Launch site
AFWTR
Launch vehicle
Mass (kg)
RCS (m²)

External: N2YO · Heavens-Above · Gunter

§ Orbital elements

Epoch: 2026-05-24T21:33:41.232096Z

Period
96.51 min
Inclination
97.7577°
Eccentricity
0.0002766
Mean motion
14.92062717 rev/d
Perigee alt
589.6 km
Apogee alt
593.4 km
Semi-major
6,969.6 km
B*
2.1443e-4
RAAN
103.5283°
Arg perigee
59.8483°
Mean anomaly
300.3009°
Rev number
825

§ Raw data

ICEYE-X751 68497U 26067CK  26144.89839389  .00002121  00000+0  21443-3 0  99912 68497  97.7577 103.5283 0002766  59.8483 300.3009 14.92062717  8257

JSON: /api/v1/satellites/68497 · /tle

For live sub-satellite position, see the globe view (requires WebGL).

§ Visibility from observer

Set your observer location to see the next 7 days of passes ≥ 10°. The values pass through the URL so the page stays shareable.

No JS? Fill the form by hand. The geolocation button needs JavaScript.

§ Radio — SatNOGS DB

ModeDescriptionDownlinkUplink
FM S-band telemetry 2.264 GHz

1 transmitter · refreshed weekly from db.satnogs.org